Home   Weather   Great Barrier Island   Past weeks
Flag for New Zealand

Past Weather in Great Barrier Island, New Zealand — Yesterday and Last 2 Weeks

Now
61 °F

Cool.


Feels Like: 61 °F
Forecast: 69 / 60 °F
Wind: 7 mph from Northeast

Location: Auckland Airport
Current Time: Oct 25, 2020 at 12:57:43 am
Latest Report: Oct 25, 2020 at 12:00 am
Visibility: N/A
Pressure30.33 "Hg
Humidity: 94%
Dew Point: 59 °F
Location of Great Barrier IslandLocation

Past Weather in Great Barrier Island — Graph

°F

Great Barrier Island Temperature Yesterday

Maximum temperature yesterday: 72 °F (at 12:30 pm)
Minimum temperature yesterday: 59 °F (at 5:00 am)
Average temperature yesterday: 65 °F

High & Low Weather Summary for the Past Weeks

 TemperatureHumidityPressure
High72 °F (Oct 22, 2:00 pm)100% (Oct 13, 8:30 am)30.51 "Hg (Oct 13, 8:30 am)
Low43 °F (Oct 17, 4:30 am)45% (Oct 10, 5:00 pm)29.98 "Hg (Oct 19, 5:00 pm)
Average59 °F79%30.16 "Hg
* Reported Oct 9 11:00 pm — Oct 24 11:30 pm, Great Barrier Island. Weather by CustomWeather, © 2020

Note: Actual official high and low records may vary slightly from our data, if they occured in-between our weather recording intervals... More about our weather records

Great Barrier Island Weather History for the Previous 24 Hours

Scroll right to see more
 ConditionsComfort  
Time TempWeatherWind HumidityBarometerVisibility
11:30 pm
Sat, Oct 24
61 °FPassing clouds.6 mph94%30.33 "HgN/A
11:00 pm61 °FCool.7 mph94%30.33 "HgN/A
10:30 pm61 °FCool.6 mph94%30.33 "HgN/A
10:00 pm63 °FMild.8 mph88%30.33 "HgN/A
9:30 pm63 °FMild.8 mph88%30.30 "HgN/A
9:00 pm63 °FMild.8 mph88%30.30 "HgN/A
8:30 pm63 °FMild.9 mph88%30.30 "HgN/A
8:00 pm64 °FPassing clouds.12 mph83%30.30 "HgN/A
7:30 pm64 °FPartly sunny.10 mph83%30.30 "HgN/A
7:00 pm66 °FPassing clouds.10 mph73%30.27 "HgN/A
6:30 pm68 °FMild.13 mph64%30.27 "HgN/A
6:00 pm68 °FPassing clouds.13 mph69%30.27 "HgN/A
5:30 pm70 °FMore clouds than sun.14 mph64%30.27 "HgN/A
5:00 pm70 °FPassing clouds.14 mph60%30.27 "HgN/A
4:30 pm72 °FPassing clouds.14 mph65%30.27 "HgN/A
4:00 pm72 °FMild.12 mph65%30.27 "HgN/A
3:30 pm72 °FMild.12 mph65%30.27 "HgN/A
3:00 pm72 °FPassing clouds.10 mph61%30.30 "HgN/A
2:30 pm72 °FPassing clouds.10 mph65%30.30 "HgN/A
2:00 pm72 °FScattered clouds.13 mph65%30.30 "HgN/A
1:30 pm70 °FPartly sunny.12 mph69%30.30 "HgN/A
12:30 pm72 °FScattered clouds.9 mph65%30.30 "HgN/A
12:00 pm70 °FScattered clouds.10 mph69%30.33 "HgN/A
11:30 am70 °FPartly sunny.12 mph69%30.33 "HgN/A
10:30 am68 °FBroken clouds.10 mph73%30.33 "HgN/A
10:00 am66 °FPartly sunny.10 mph78%30.30 "HgN/A
9:30 am66 °FPartly sunny.9 mph78%30.30 "HgN/A
9:00 am66 °FBroken clouds.8 mph83%30.30 "HgN/A
8:30 am63 °FPartly sunny.2 mph94%30.30 "HgN/A
8:00 am61 °FPartly sunny.2 mph94%30.30 "HgN/A
7:30 am61 °FScattered clouds.3 mph94%30.30 "HgN/A
7:00 am59 °FPassing clouds.6 mph100%30.27 "HgN/A
6:30 am59 °FPassing clouds.6 mph100%30.27 "HgN/A
6:00 am59 °FCool.7 mph100%30.24 "HgN/A
5:30 am59 °FCool.6 mph94%30.24 "HgN/A
5:00 am59 °FCool.6 mph100%30.24 "HgN/A
4:30 am61 °FPassing clouds.6 mph94%30.27 "HgN/A
4:00 am61 °FPassing clouds.5 mph94%30.27 "HgN/A
3:30 am61 °FPartly cloudy.6 mph94%30.27 "HgN/A
3:00 am61 °FOvercast.5 mph94%30.27 "HgN/A
2:30 am61 °FMostly cloudy.5 mph94%30.27 "HgN/A
2:00 am63 °FOvercast.3 mph88%30.27 "HgN/A
1:30 am63 °FDrizzle. Mostly cloudy.6 mph88%30.30 "HgN/A
1:00 am63 °FMostly cloudy.7 mph88%30.30 "HgN/A
12:30 am63 °FOvercast.8 mph88%30.30 "HgN/A
12:00 am63 °FMostly cloudy.7 mph88%30.30 "HgN/A
Weather by CustomWeather, © 2020

See weather overview